CAPE
638 630 738 866 817 854 969 1067 1064 1061 1115 1192 1189 1165 1190 1171 1163 1506 1251 1081 1029 1202 1227 1262 1200 1300 966 819 730 907 1082 996 432 416 354 635 671 699 740 827 1348 1155
570 693 738 742 753 668 787 806 868 944 966 1113 1116 1054 1003 1074 1427 1523 1157 1086 929 1190 1307 1284 1223 1149 839 790 1004 1081 1043 1017 938 473 371 291 490 398 658 1053 1242 1170
348 510 788 836 896 926 867 901 943 884 680 788 840 834 861 1047 1175 1354 1047 969 890 1060 1192 1174 1253 579 812 1144 1158 1018 1086 890 744 453 433 437 435 424 930 1104 984 938
32 149 421 712 853 938 974 1000 1003 751 690 655 778 722 862 1009 1004 772 994 950 761 828 759 1356 1366 886 724 1049 1158 939 774 586 844 526 554 944 1012 982 1059 1278 711 386
61 22 147 448 752 869 935 911 931 911 682 692 886 996 1138 961 981 948 908 794 675 910 1141 1240 1154 938 1125 1166 1124 1092 1013 970 1021 1035 1104 1125 1116 967 1160 619 531 489
1 80 246 302 654 848 892 916 758 916 871 869 975 1123 1067 859 887 722 851 646 536 723 1002 1180 1124 1300 1126 949 1232 1288 1271 1162 1062 957 1012 1147 1156 1128 983 706 651 842
337 338 350 419 438 668 987 990 888 830 767 945 1002 1156 708 800 770 766 533 738 711 840 959 1112 1398 1357 1009 872 845 915 936 961 973 1090 985 932 808 955 716 812 888 895
360 380 388 384 449 454 724 896 883 854 540 762 747 581 601 621 913 910 707 680 676 473 685 858 744 1133 938 927 930 946 944 927 1144 1124 1078 897 890 879 962 916 1026 1008
162 411 484 435 419 436 469 505 776 709 729 739 501 609 534 708 648 864 697 533 474 409 620 443 849 999 1084 1034 1121 1068 1011 1055 1145 1269 1192 960 910 945 848 868 979 1036
2 1 379 521 528 468 450 386 601 737 695 778 542 522 520 417 552 703 697 876 894 882 788 794 1058 978 1028 1067 1106 1079 1074 1060 1081 1145 1084 1012 1031 948 823 828 971 1150
2 1 118 483 525 527 424 390 534 649 666 349 376 370 383 518 453 355 408 913 700 210 380 629 1082 1160 1100 1090 1106 1146 1135 1135 1127 1112 1138 1066 1031 980 874 948 988 1103
3 2 1 314 562 480 476 421 404 692 768 253 287 177 300 418 454 454 410 402 381 268 249 456 1025 1241 1194 1112 1128 1144 1108 1177 1163 1074 1082 1061 1032 1074 956 1016 1110 1095
3 2 2 0 483 500 433 475 408 534 575 286 156 132 254 353 318 402 408 419 489 558 710 1054 1072 1260 1407 1375 1286 1128 898 974 1106 1116 1047 1142 1171 1065 1081 1082 1133 1120
3 2 2 1 271 517 414 448 396 125 410 356 176 37 278 356 334 248 322 480 326 484 345 533 1027 1173 1404 1420 1219 1107 1149 1296 1324 1222 1041 1177 1265 1260 1229 1208 1152 1218
2 4 2 2 0 397 421 433 445 169 261 314 237 266 287 390 290 318 311 307 724 521 294 226 437 776 1237 1469 1231 928 898 848 1235 1162 1133 1009 955 921 1067 1004 1067 1045
0 1 1 2 1 108 378 402 443 398 224 202 180 274 118 230 230 187 194 184 566 613 454 517 624 672 952 746 660 960 777 865 961 1067 1026 1018 887 861 884 766 860 1035
0 1 2 1 1 1 1 358 410 372 248 178 208 242 252 271 245 155 125 135 593 587 840 696 960 976 999 740 555 618 835 1152 1040 881 1011 960 846 780 826 805 935 885
1 2 1 0 1 2 1 82 311 327 260 67 2 248 297 313 270 235 196 227 266 264 323 347 625 504 847 818 603 620 676 960 1181 1096 945 862 847 801 799 813 895 985
2 2 1 0 2 0 2 1 1 259 251 188 67 170 186 225 297 277 282 240 211 185 124 220 274 462 556 496 496 532 537 556 1001 1149 1120 1172 1198 1124 1055 882 957 972
3 2 2 1 0 1 1 1 1 2 218 257 78 59 1 78 214 303 299 237 188 175 165 87 193 0 317 372 375 484 501 451 475 944 1076 1170 1328 1290 1338 1255 1131 1089
3 3 3 2 0 1 0 0 2 1 2 98 255 167 3 1 118 204 262 254 256 223 179 152 172 232 296 325 317 348 375 346 305 521 856 947 1081 1326 1431 1280 1208 1143
6 6 5 5 4 2 1 0 1 2 2 2 2 193 184 127 1 31 151 202 199 158 178 137 123 181 269 298 292 290 272 292 301 451 660 728 704 1244 1303 1292 1196 1170
11 8 7 6 6 5 4 3 2 2 2 1 1 2 3 139 205 44 63 76 146 157 153 64 10 49 164 229 244 219 197 196 232 340 465 516 716 628 576 1099 1215 1070
10 8 8 10 7 7 8 8 5 4 3 2 2 2 33 63 1 26 28 23 5 20 98 135 112 64 88 149 177 187 115 39 26 258 164 411 280 319 367 385 66 386
3 5 9 9 9 8 8 8 10 7 3 3 2 2 2 0 25 87 102 105 9 5 2 36 77 132 129 90 150 179 70 0 0 75 134 95 49 26 4 0 0 0
2 4 5 6 8 8 10 12 12 8 6 4 2 2 1 1 0 1 2 12 70 72 47 20 13 28 100 102 92 105 129 73 35 70 0 59 0 0 0 0 0 0
Wind_Speed
24 25 25 25 24 23 24 25 25 26 29 29 28 27 26 27 29 28 26 27 27 28 28 25 23 23 23 22 21 20 21 21 22 19 15 15 13 11 9 8 9 12
24 24 24 24 24 24 25 27 26 27 29 30 30 29 28 26 28 30 30 29 28 29 27 25 25 25 23 21 20 19 21 21 21 21 19 13 15 11 8 9 11 12
23 23 22 21 22 22 23 26 28 28 30 31 30 31 30 28 27 30 31 30 30 29 27 25 25 24 22 20 20 20 21 22 21 19 17 10 13 11 12 13 13 13
nan 22 22 21 21 21 23 26 28 31 33 33 33 33 31 30 29 30 30 30 29 29 26 25 23 24 22 22 22 20 20 21 21 19 16 13 14 14 14 16 16 15
nan nan 23 21 21 21 23 25 27 28 31 35 35 34 32 31 31 30 28 27 28 27 26 24 23 23 23 23 22 21 21 20 19 19 18 16 17 16 17 19 16 14
nan nan 22 21 20 21 24 25 26 27 30 33 34 34 32 32 31 29 28 24 25 25 23 23 23 22 22 22 21 20 20 19 18 18 18 18 18 18 19 19 17 15
24 22 21 21 20 20 22 24 26 27 28 30 32 32 31 31 30 28 27 24 23 24 21 23 23 23 25 22 20 19 19 18 18 18 18 20 21 20 19 19 17 17
23 22 22 21 20 20 20 21 23 26 27 28 28 28 30 29 29 28 26 24 23 23 19 23 21 25 25 22 21 20 20 21 19 18 19 20 21 20 20 20 20 17
23 23 22 21 20 20 20 20 20 23 27 28 26 26 27 28 27 26 24 25 24 20 21 21 20 24 25 22 21 20 21 20 20 21 21 20 20 20 20 20 19 18
nan nan 22 22 21 20 19 19 19 21 26 29 28 26 26 25 22 24 24 22 22 24 24 24 24 24 24 22 20 20 22 21 21 22 22 21 20 20 20 20 19 19
nan nan 22 21 20 20 18 18 19 21 25 26 28 25 24 23 25 23 24 25 27 24 22 21 23 25 23 21 20 22 23 23 23 23 22 20 20 19 20 20 21 20
nan nan nan 22 20 20 19 18 19 21 22 23 25 24 22 25 25 26 23 27 21 22 22 19 22 25 23 20 21 23 24 25 25 24 22 21 20 20 21 21 21 21
nan nan nan nan 22 21 21 20 20 21 22 19 21 22 23 26 27 23 28 22 22 22 23 24 26 26 23 21 22 25 26 27 27 25 23 22 22 22 22 21 21 21
nan nan nan nan 24 23 24 23 20 22 22 18 17 nan 27 30 28 27 29 27 24 36 34 28 28 26 23 22 24 26 28 27 26 25 23 23 22 22 23 22 22 22
nan nan nan nan nan 26 26 25 22 22 22 18 16 21 27 30 34 34 31 27 27 29 24 22 19 20 24 23 25 28 27 26 25 25 24 24 23 22 22 22 24 24
nan nan nan nan nan 28 27 26 25 23 24 19 17 20 24 29 33 31 30 25 24 22 20 20 27 24 30 26 25 28 27 27 26 26 25 25 23 22 21 21 24 25
nan nan nan nan nan nan nan 28 26 25 24 23 18 20 27 29 28 30 30 25 25 24 25 25 23 32 35 27 29 27 27 28 27 26 26 25 24 22 21 22 24 25
nan nan nan nan nan nan nan nan 28 26 25 nan nan 19 24 29 31 32 33 29 27 24 28 28 31 47 41 36 29 27 26 26 27 27 26 25 23 23 22 24 25 26
nan nan nan nan nan nan nan nan nan 28 27 25 nan 20 22 30 33 33 31 30 29 30 32 36 41 48 46 41 35 31 28 27 25 26 25 25 24 24 24 25 26 27
nan nan nan nan nan nan nan nan nan nan 29 28 nan nan nan nan 33 37 34 33 32 32 32 nan 40 nan 45 41 36 33 28 28 24 25 25 25 25 25 27 27 27 28
nan nan nan nan nan nan nan nan nan nan nan nan 29 27 nan nan 28 34 37 37 37 36 35 34 39 48 46 43 40 34 29 28 25 25 26 26 26 26 28 28 28 27
nan nan nan nan nan nan nan nan nan nan nan nan nan 30 27 25 nan nan 33 38 40 40 39 36 37 46 45 45 42 37 32 28 24 24 27 27 27 28 29 31 30 29
nan nan nan nan nan nan nan nan nan nan nan nan nan nan nan 29 27 nan nan nan 38 41 40 nan nan nan 45 46 44 42 34 30 25 26 27 28 29 29 29 32 34 34
nan nan nan nan nan nan nan nan nan nan nan nan nan nan nan nan nan nan nan nan nan nan nan 38 39 nan nan 46 47 45 39 nan nan 28 29 32 33 33 31 32 nan 47
nan nan nan nan nan nan nan nan nan nan nan nan nan nan nan nan nan nan 34 32 nan nan nan nan nan 39 44 nan 48 46 nan nan nan nan 35 nan nan nan nan nan nan nan
nan nan nan nan nan nan nan nan nan nan nan nan nan nan nan nan nan nan nan nan nan nan nan nan nan nan 42 45 nan 47 46 nan nan nan nan nan nan nan nan nan nan nan
Wind_Direction
272 277 279 281 282 285 286 285 285 286 285 282 279 277 278 281 283 283 281 276 277 281 279 274 270 266 265 268 267 264 267 268 258 254 251 246 243 243 238 231 231 232
267 270 277 283 287 288 288 288 286 286 286 284 280 275 273 276 282 280 279 276 276 278 277 273 267 266 266 266 270 269 268 267 266 257 253 246 238 233 233 231 230 238
267 270 272 277 282 288 289 289 288 287 286 284 280 276 271 271 274 279 277 274 270 271 273 268 264 264 261 260 265 267 265 267 263 265 257 259 261 256 247 234 233 235
nan 268 272 274 280 283 283 284 285 286 284 283 283 280 277 273 269 275 279 277 267 261 265 268 265 263 257 255 259 258 260 259 258 260 259 250 249 248 243 242 239 231
nan nan 266 271 278 282 286 286 283 281 282 282 281 281 279 275 269 272 280 276 264 259 263 267 266 265 259 255 255 249 251 252 257 259 255 249 245 244 243 243 241 242
nan nan 264 269 279 288 291 290 287 285 285 286 284 280 279 276 270 270 278 275 260 256 262 265 266 263 261 256 254 251 252 251 254 257 255 251 248 246 244 247 249 248
258 261 262 271 274 281 290 293 292 289 288 286 286 283 279 278 276 271 275 273 259 250 257 263 263 261 258 254 252 250 247 246 249 254 254 250 246 247 248 249 250 252
259 264 269 272 274 281 282 287 290 293 292 291 285 280 278 278 275 269 270 270 253 248 258 260 259 259 258 254 252 253 252 248 249 251 252 252 251 250 253 250 252 252
263 266 269 270 275 284 285 280 287 296 294 288 282 275 272 270 271 266 268 265 258 250 248 244 254 259 259 256 255 257 257 254 250 250 252 253 254 255 256 257 257 256
nan nan 267 270 274 283 282 287 289 295 293 285 275 268 270 267 265 262 259 260 258 247 240 254 261 260 258 255 256 257 258 258 252 250 251 253 255 257 259 261 262 261
nan nan 267 271 276 283 282 284 294 297 294 284 276 265 254 254 258 256 249 251 252 250 243 242 257 258 258 258 255 255 257 254 252 252 253 254 257 259 261 262 266 265
nan nan nan 272 279 283 286 292 297 302 299 285 271 262 253 248 250 250 247 249 254 253 251 253 256 257 257 259 260 259 256 254 252 253 255 257 260 261 262 262 264 268
nan nan nan nan 279 285 290 294 295 296 302 290 265 258 251 245 246 244 238 227 247 258 257 255 259 258 257 260 261 260 258 257 255 256 259 260 263 265 264 265 266 267
nan nan nan nan 279 284 287 290 294 298 302 293 271 nan 250 239 240 232 221 223 230 234 227 230 235 249 258 260 261 260 258 257 257 259 262 262 263 265 266 268 268 267
nan nan nan nan nan 280 283 285 289 292 298 300 280 256 244 235 228 220 214 214 233 240 233 237 247 248 255 259 261 263 260 258 258 262 263 262 260 261 264 267 268 266
nan nan nan nan nan 272 277 283 288 291 289 286 276 255 238 227 222 212 211 217 225 240 243 237 239 237 248 255 251 259 260 256 259 261 262 260 258 260 263 266 268 266
nan nan nan nan nan nan nan 274 280 286 290 288 275 240 223 219 218 213 212 211 216 221 228 232 241 247 249 249 250 241 247 258 260 261 260 259 259 260 262 266 267 269
nan nan nan nan nan nan nan nan 274 278 279 nan nan 254 228 222 220 215 217 217 222 221 219 219 232 229 228 237 240 239 238 248 258 258 258 258 259 261 260 262 265 267
nan nan nan nan nan nan nan nan nan 272 272 272 nan 266 242 226 222 220 219 222 223 225 226 225 230 227 221 216 221 224 224 226 248 255 255 256 256 257 258 261 264 265
nan nan nan nan nan nan nan nan nan nan 270 271 nan nan nan nan 227 224 223 222 225 228 232 nan 235 nan 223 220 217 219 222 228 236 248 252 254 255 256 257 260 263 265
nan nan nan nan nan nan nan nan nan nan nan nan 270 268 nan nan 237 229 228 228 228 228 231 237 242 227 223 221 219 220 224 233 237 242 249 251 253 255 257 258 261 262
nan nan nan nan nan nan nan nan nan nan nan nan nan 268 269 265 nan nan 232 228 227 230 233 234 238 231 224 223 222 221 228 240 244 247 250 251 252 255 256 257 259 260
nan nan nan nan nan nan nan nan nan nan nan nan nan nan nan 263 262 nan nan nan 231 231 230 nan nan nan 227 225 223 227 237 241 244 247 249 252 252 253 256 258 256 253
nan nan nan nan nan nan nan nan nan nan nan nan nan nan nan nan nan nan nan nan nan nan nan 232 231 nan nan 228 227 227 233 nan nan 244 250 252 252 248 249 257 nan 245
nan nan nan nan nan nan nan nan nan nan nan nan nan nan nan nan nan nan 257 254 nan nan nan nan nan 234 228 nan 232 231 nan nan nan nan 250 nan nan nan nan nan nan nan
nan nan nan nan nan nan nan nan nan nan nan nan nan nan nan nan nan nan nan nan nan nan nan nan nan nan 235 228 nan 235 236 nan nan nan nan nan nan nan nan nan nan nan